Regional Weather Roundup
Issued by NWS

Home | Current Version | Previous Version | Graphics & Text | Print | Product List | Glossary On
Versions: 1 2 3 4 5 6 7 8 9 10 11 12 13 14 15 16 17 18 19 20 21 22 23 24 25 26 27 28 29 30 31 32 33 34 35 36 37 38 39 40 41 42 43 44 45 46 47 48 49 50
881
ASUS45 KBOU 271607
RWRCO

WEATHER ROUNDUP FOR COLORADO
NATIONAL WEATHER SERVICE DENVER/BOULDER CO
1000 AM MDT MON MAR 27 2017

NOTE: "FAIR" INDICATES FEW OR NO CLOUDS BELOW 12000 FEET WITH NO
SIGNIFICANT WEATHER AND/OR OBSTRUCTIONS TO VISIBILITY.

COZ001>005-013-030-031-271700-
...NORTHWEST COLORADO...

CITY           SKY/WX    TMP DP  RH WIND       PRES   REMARKS
CRAIG          CLOUDY    46  28  49 E5        29.94F
HAYDEN         CLOUDY    43  27  52 SE3       29.95S
MEEKER         CLOUDY    46  28  49 SW7       29.94F
MOUNT WERNER   NOT AVBL
STEAMBOAT SPGS PTSUNNY   37  30  74 W3        29.95S
WALDEN         NOT AVBL
$$

COZ006>008-011-271700-
...WEST CENTRAL VALLEYS...

CITY           SKY/WX    TMP DP  RH WIND       PRES   REMARKS
GRAND JUNCTION CLOUDY    51  30  44 SE8       29.90F
MONTROSE       PTSUNNY   49  29  46 VRB3      29.95F
EAGLE          SUNNY     41  25  52 CALM      29.97F
RIFLE          FAIR      47  29  49 NE3       29.93F
DELTA          FAIR      50  31  47 E3        29.94F
NUCLA          PTSUNNY   43  32  65 CALM      29.98S
$$

COZ017>023-064>068-271700-
...SOUTHWEST COLORADO...

CITY           SKY/WX    TMP DP  RH WIND       PRES   REMARKS
DURANGO        CLOUDY    42  29  59 SW3       30.01S
CORTEZ         FAIR      46  33  60 CALM      29.97F
PAGOSA SPRINGS CLOUDY    43  28  55 CALM      30.04S
TELLURIDE      NOT AVBL
WOLF CREEK PAS PTSUNNY   23  23 100 S10G18    30.13F WCI  12
$$

COZ009-010-012-014-032>034-037-058>063-271700-
...CENTRAL COLORADO...

CITY           SKY/WX    TMP DP  RH WIND       PRES   REMARKS
ASPEN          FAIR      43  24  47 N6        29.93F
BUENA VISTA    FAIR      42  22  43 E6        29.99S
COPPER MTN     NOT AVBL
BERTHOUD PASS  FAIR      21  10  63 SW5G16    30.06R WCI  15
COTTONWOOD PAS FAIR      41  21  45 E5        30.02R
GUNNISON       FAIR      37  24  59 VRB3      30.02F
KREMMLING      PTSUNNY   41  28  60 CALM      29.98F
LEADVILLE      NOT AVBL
MONARCH PASS   FAIR      25  16  68 W20       30.16S WCI  11
SALIDA         FAIR      42  29  58 E5        30.05F
SUNLIGHT       CLOUDY    30  21  69 S5        30.05F WCI  25
WILKERSON PASS FAIR      30  12  47 CALM      30.07S
$$

COZ069>075-271700-
...SAN LUIS VALLEY/SANGRE DE CRISTO MOUNTAINS...

CITY           SKY/WX    TMP DP  RH WIND       PRES   REMARKS
ALAMOSA        FAIR      42  32  67 E6        30.02S
LA VETA PASS   NOT AVBL
SAGUACHE       FAIR      43  25  49 S7        30.02S
$$

COZ035-036-038>040-271700-
...NORTHERN COLORADO FRONT RANGE...

CITY           SKY/WX    TMP DP  RH WIND       PRES   REMARKS
DENVER INTL AP FAIR      48  36  63 NW5       29.93S
DMNS CITY PARK   N/A     51  33  50 N8        29.93S
AURORA         MOSUNNY   51  33  50 CALM      29.93S
FRONT RANGE AP MOSUNNY   50  39  66 N3        29.94S
ERIE MUNI ARPT FAIR      42  41  97 N3        29.94S
BOULDER MUN AP FAIR      46  39  76 CALM      29.93F
CENTENNIAL     FAIR      49  34  56 CALM      29.93S
BROOMFIELD     MOSUNNY   45  39  81 N3        29.94S
FORT COLLINS   FAIR      44  39  82 N3        29.94F
LONGMONT       CLOUDY    49  41  74 CALM      29.95F
$$

COZ041-046-047-076>085-087-088-271700-
...PIKES PEAK/PALMER DIVIDE AND SOUTHERN FOOTHILLS...

CITY           SKY/WX    TMP DP  RH WIND       PRES   REMARKS
COLO. SPRINGS  FAIR      48  35  60 S12       29.98S
A. F. ACADEMY  MOSUNNY   46  35  65 VRB6      29.96S
SCHRIEVER AFB  FAIR      48  33  57 S14G20    29.98S
ELLICOTT         N/A    N/A N/A N/A SW9       29.96F
FALCON         FAIR      46  33  61 S16       29.99S
FORT CARSON    FAIR      46  38  73 SE7       29.96F
LIMON          FAIR      51  38  60 S6        29.96S
MONUMENT HILL  FAIR      45  32  61 S14       29.97S
TRINIDAD       FAIR      49  34  56 W3        29.98S
$$

COZ042>045-048>051-090-091-271700-
...NORTHEAST COLORADO...

CITY           SKY/WX    TMP DP  RH WIND       PRES   REMARKS
GREELEY ARPT   NOT AVBL
AKRON          FAIR      52  36  54 S5        29.94S
BURLINGTON     FAIR      50  43  77 SW5       29.97R
WRAY           NOT AVBL
STERLING       FAIR      43  37  81 SW3       29.93F
HOLYOKE        FAIR      54  41  62 CALM      29.95S
FORT MORGAN    FAIR      47  36  65 CALM      29.95S
$$

COZ086-089-092>099-271700-
...SOUTHEAST COLORADO...

CITY           SKY/WX    TMP DP  RH WIND       PRES   REMARKS
PUEBLO         FAIR      48  39  71 CALM      29.96F
LA JUNTA       FAIR      50  39  66 SW6       29.98R
LAMAR          FAIR      50  38  63 NW5       29.97S
SPRINGFIELD      N/A     55  37  50 S12       29.99R
$$




USA.gov is the U.S. government's official web portal to all federal, state and local government web resources and services.